Location: Aulnoy
(48.8410°N, 3.0967°E)
Time: 19:28:17
(UTC+00:00)

Cosmos 540 Rocket - Pass Details

Date: 09 February 2023
Orbit: 740 x 751 km, 74.1° (Epoch: 26 March)

Event Time Altitude Azimuth Distance (km) Brightness Sun altitude
Rises 17:31:46 0° 334° (NNW) 3,205 6.9 -6.1°
Reaches altitude 10° 17:34:09 10° 331° (NNW) 2,275 6.2 -6.5°
Maximum altitude 17:39:14 61° 252° (WSW) 846 4.1 -7.3°
Drops below altitude 10° 17:44:15 10° 173° (S) 2,251 6.0 -8.1°
Sets 17:46:36 0° 170° (S) 3,168 6.7 -8.5°
